Time,TemperatureF,DewpointF,PressureIn,WindDirection,WindDirectionDegrees,WindSpeedMPH,WindSpeedGustMPH,Humidity,HourlyPrecipIn,Conditions,Clouds,dailyrainin,SoftwareType,DateUTC
2013-04-14 00:14:00,31.3,29.0,29.96,West,275,2.0,-999.0,90,-99.99,,,0.01,weatherlink.com 1.10,2013-04-14 04:14:00,
2013-04-14 00:29:00,31.3,29.0,29.97,West,279,0.0,-999.0,91,-99.99,,,0.01,weatherlink.com 1.10,2013-04-14 04:29:00,
2013-04-14 00:44:00,31.3,29.0,29.97,WNW,291,1.0,-999.0,91,-99.99,,,0.01,weatherlink.com 1.10,2013-04-14 04:44:00,
2013-04-14 00:59:00,31.4,29.0,29.98,West,264,4.0,-999.0,91,-99.99,,,0.01,weatherlink.com 1.10,2013-04-14 04:59:00,
2013-04-14 01:15:00,30.8,28.0,29.98,West,277,3.0,-999.0,90,-99.99,,,0.01,weatherlink.com 1.10,2013-04-14 05:15:00,
2013-04-14 01:30:00,30.8,29.0,29.99,West,281,1.0,-999.0,91,-99.99,,,0.01,weatherlink.com 1.10,2013-04-14 05:30:00,
2013-04-14 01:45:00,31.0,29.0,29.99,WNW,290,3.0,-999.0,91,-99.99,,,0.01,weatherlink.com 1.10,2013-04-14 05:45:00,
2013-04-14 02:00:00,31.2,29.0,30.00,West,280,1.0,-999.0,90,-99.99,,,0.01,weatherlink.com 1.10,2013-04-14 06:00:00,
2013-04-14 02:15:00,30.6,28.0,30.00,West,268,2.0,-999.0,91,-99.99,,,0.01,weatherlink.com 1.10,2013-04-14 06:15:00,
2013-04-14 02:30:00,30.8,29.0,30.01,WSW,253,3.0,-999.0,91,-99.99,,,0.01,weatherlink.com 1.10,2013-04-14 06:30:00,
2013-04-14 02:45:00,31.1,29.0,30.00,West,281,3.0,-999.0,90,-99.99,,,0.01,weatherlink.com 1.10,2013-04-14 06:45:00,
2013-04-14 03:00:00,31.0,29.0,30.00,WNW,288,4.0,-999.0,90,-99.99,,,0.01,weatherlink.com 1.10,2013-04-14 07:00:00,
2013-04-14 03:15:00,30.9,28.0,30.00,West,264,1.0,-999.0,90,-99.99,,,0.01,weatherlink.com 1.10,2013-04-14 07:15:00,
2013-04-14 03:30:00,30.9,29.0,30.01,West,265,1.0,-999.0,91,-99.99,,,0.01,weatherlink.com 1.10,2013-04-14 07:30:00,
2013-04-14 03:45:00,30.8,29.0,30.01,West,268,1.0,-999.0,91,-99.99,,,0.01,weatherlink.com 1.10,2013-04-14 07:45:00,
2013-04-14 04:00:00,30.8,29.0,30.02,West,270,3.0,-999.0,91,-99.99,,,0.01,weatherlink.com 1.10,2013-04-14 08:00:00,
2013-04-14 04:15:00,30.7,28.0,30.02,West,265,2.0,-999.0,90,-99.99,,,0.01,weatherlink.com 1.10,2013-04-14 08:15:00,
2013-04-14 04:30:00,30.7,28.0,30.03,WNW,291,1.0,-999.0,90,-99.99,,,0.01,weatherlink.com 1.10,2013-04-14 08:30:00,
2013-04-14 04:45:00,30.5,28.0,30.04,West,263,3.0,-999.0,90,-99.99,,,0.01,weatherlink.com 1.10,2013-04-14 08:45:00,
2013-04-14 05:00:00,30.5,28.0,30.04,WSW,248,2.0,-999.0,90,-99.99,,,0.01,weatherlink.com 1.10,2013-04-14 09:00:00,
2013-04-14 05:15:00,30.7,28.0,30.05,West,280,2.0,-999.0,90,-99.99,,,0.01,weatherlink.com 1.10,2013-04-14 09:15:00,
2013-04-14 05:30:00,30.6,28.0,30.05,West,273,1.0,-999.0,90,-99.99,,,0.01,weatherlink.com 1.10,2013-04-14 09:30:00,
2013-04-14 05:45:00,30.6,28.0,30.05,WNW,288,1.0,-999.0,90,-99.99,,,0.01,weatherlink.com 1.10,2013-04-14 09:45:00,
2013-04-14 06:00:00,30.6,28.0,30.05,WNW,287,2.0,-999.0,90,-99.99,,,0.01,weatherlink.com 1.10,2013-04-14 10:00:00,
2013-04-14 06:15:00,30.4,28.0,30.06,WNW,290,2.0,-999.0,90,-99.99,,,0.01,weatherlink.com 1.10,2013-04-14 10:15:00,
2013-04-14 06:30:00,30.6,28.0,30.06,WSW,255,2.0,-999.0,90,-99.99,,,0.01,weatherlink.com 1.10,2013-04-14 10:30:00,
2013-04-14 06:45:00,30.7,28.0,30.06,West,271,3.0,-999.0,90,-99.99,,,0.01,weatherlink.com 1.10,2013-04-14 10:45:00,
2013-04-14 07:00:00,30.6,28.0,30.07,West,271,0.0,-999.0,91,-99.99,,,0.01,weatherlink.com 1.10,2013-04-14 11:00:00,
2013-04-14 07:15:00,30.7,28.0,30.08,West,271,1.0,-999.0,91,-99.99,,,0.01,weatherlink.com 1.10,2013-04-14 11:15:00,
2013-04-14 07:30:00,30.8,29.0,30.08,West,271,0.0,-999.0,91,-99.99,,,0.01,weatherlink.com 1.10,2013-04-14 11:30:00,
2013-04-14 07:45:00,31.0,29.0,30.09,West,271,2.0,-999.0,91,-99.99,,,0.01,weatherlink.com 1.10,2013-04-14 11:45:00,
2013-04-14 08:00:00,30.9,29.0,30.11,West,272,2.0,-999.0,91,-99.99,,,0.01,weatherlink.com 1.10,2013-04-14 12:00:00,
2013-04-14 08:15:00,31.1,29.0,30.11,West,267,2.0,-999.0,91,-99.99,,,0.01,weatherlink.com 1.10,2013-04-14 12:15:00,
2013-04-14 08:30:00,31.3,29.0,30.13,WNW,286,2.0,-999.0,91,-99.99,,,0.01,weatherlink.com 1.10,2013-04-14 12:30:00,
2013-04-14 08:45:00,31.6,29.0,30.13,WNW,283,2.0,-999.0,91,-99.99,,,0.01,weatherlink.com 1.10,2013-04-14 12:45:00,
2013-04-14 09:00:00,31.8,29.0,30.14,West,269,0.0,-999.0,90,-99.99,,,0.01,weatherlink.com 1.10,2013-04-14 13:00:00,
2013-04-14 09:15:00,32.1,30.0,30.15,West,269,4.0,-999.0,90,-99.99,,,0.01,weatherlink.com 1.10,2013-04-14 13:15:00,
2013-04-14 09:30:00,32.5,30.0,30.16,West,269,2.0,-999.0,90,-99.99,,,0.01,weatherlink.com 1.10,2013-04-14 13:30:00,
2013-04-14 09:45:00,33.3,30.0,30.15,West,276,3.0,-999.0,89,-99.99,,,0.01,weatherlink.com 1.10,2013-04-14 13:45:00,
2013-04-14 10:00:00,34.6,31.0,30.15,West,279,3.0,-999.0,87,-99.99,,,0.01,weatherlink.com 1.10,2013-04-14 14:00:00,
2013-04-14 10:15:00,34.1,30.0,30.16,WSW,249,5.0,-999.0,85,-99.99,,,0.01,weatherlink.com 1.10,2013-04-14 14:15:00,
2013-04-14 10:31:00,34.4,30.0,30.16,WSW,245,2.0,-999.0,83,-99.99,,,0.01,weatherlink.com 1.10,2013-04-14 14:31:00,
2013-04-14 10:46:00,35.2,29.0,30.14,NW,318,4.0,-999.0,79,-99.99,,,0.01,weatherlink.com 1.10,2013-04-14 14:46:00,
2013-04-14 11:01:00,35.5,28.0,30.14,NNW,334,2.0,-999.0,74,-99.99,,,0.00,weatherlink.com 1.10,2013-04-14 15:01:00,
2013-04-14 11:16:00,36.1,28.0,30.14,North,5,3.0,-999.0,72,-99.99,,,0.00,weatherlink.com 1.10,2013-04-14 15:16:00,
2013-04-14 11:31:00,36.9,26.0,30.14,ENE,65,8.0,-999.0,66,-99.99,,,0.00,weatherlink.com 1.10,2013-04-14 15:31:00,
2013-04-14 11:46:00,36.6,28.0,30.14,WSW,246,4.0,-999.0,71,-99.99,,,0.00,weatherlink.com 1.10,2013-04-14 15:46:00,
2013-04-14 12:31:00,37.9,26.0,30.15,WSW,250,3.0,-999.0,63,-99.99,,,0.00,weatherlink.com 1.10,2013-04-14 16:31:00,
2013-04-14 13:01:00,37.9,26.0,30.15,SSW,196,5.0,-999.0,63,-99.99,,,0.00,weatherlink.com 1.10,2013-04-14 17:01:00,
2013-04-14 13:46:00,39.3,25.0,30.14,SSW,207,3.0,-999.0,58,-99.99,,,0.00,weatherlink.com 1.10,2013-04-14 17:46:00,
2013-04-14 14:01:00,39.8,26.0,30.15,SSW,207,3.0,-999.0,58,-99.99,,,0.00,weatherlink.com 1.10,2013-04-14 18:01:00,
2013-04-14 14:16:00,40.1,27.0,30.16,SW,230,4.0,-999.0,59,-99.99,,,0.00,weatherlink.com 1.10,2013-04-14 18:16:00,
2013-04-14 14:46:00,39.9,26.0,30.18,WSW,244,4.0,-999.0,59,-99.99,,,0.00,weatherlink.com 1.10,2013-04-14 18:46:00,
2013-04-14 15:46:00,41.0,27.0,30.18,West,266,4.0,-999.0,59,-99.99,,,0.00,weatherlink.com 1.10,2013-04-14 19:46:00,
2013-04-14 16:16:00,41.6,27.0,30.17,SSW,208,0.0,-999.0,57,-99.99,,,0.00,weatherlink.com 1.10,2013-04-14 20:16:00,
2013-04-14 16:31:00,41.7,26.0,30.17,SW,230,3.0,-999.0,55,-99.99,,,0.00,weatherlink.com 1.10,2013-04-14 20:31:00,
2013-04-14 16:46:00,41.5,27.0,30.16,SSW,211,4.0,-999.0,57,-99.99,,,0.00,weatherlink.com 1.10,2013-04-14 20:46:00,
2013-04-14 17:01:00,40.9,27.0,30.16,SW,215,3.0,-999.0,57,-99.99,,,0.00,weatherlink.com 1.10,2013-04-14 21:01:00,
2013-04-14 17:16:00,41.3,28.0,30.16,SSW,211,3.0,-999.0,59,-99.99,,,0.00,weatherlink.com 1.10,2013-04-14 21:16:00,
2013-04-14 17:31:00,41.4,27.0,30.16,SSW,207,3.0,-999.0,58,-99.99,,,0.00,weatherlink.com 1.10,2013-04-14 21:31:00,
2013-04-14 18:01:00,40.2,28.0,30.15,SSE,159,6.0,-999.0,63,-99.99,,,0.00,weatherlink.com 1.10,2013-04-14 22:01:00,
2013-04-14 18:17:00,39.6,28.0,30.15,SSE,159,7.0,-999.0,64,-99.99,,,0.00,weatherlink.com 1.10,2013-04-14 22:17:00,
2013-04-14 18:31:00,38.8,28.0,30.15,SSE,157,9.0,-999.0,65,-99.99,,,0.00,weatherlink.com 1.10,2013-04-14 22:31:00,
2013-04-14 18:46:00,38.2,28.0,30.15,SSE,155,6.0,-999.0,66,-99.99,,,0.00,weatherlink.com 1.10,2013-04-14 22:46:00,
2013-04-14 19:02:00,38.0,28.0,30.15,SSE,152,6.0,-999.0,67,-99.99,,,0.00,weatherlink.com 1.10,2013-04-14 23:02:00,
2013-04-14 19:17:00,38.1,28.0,30.15,SSE,148,9.0,-999.0,67,-99.99,,,0.00,weatherlink.com 1.10,2013-04-14 23:17:00,
2013-04-14 19:32:00,37.8,28.0,30.14,SE,146,4.0,-999.0,68,-99.99,,,0.00,weatherlink.com 1.10,2013-04-14 23:32:00,
2013-04-14 19:47:00,37.8,28.0,30.14,SE,142,5.0,-999.0,67,-99.99,,,0.00,weatherlink.com 1.10,2013-04-14 23:47:00,
2013-04-14 20:02:00,37.8,27.0,30.13,SE,129,4.0,-999.0,65,-99.99,,,0.00,weatherlink.com 1.10,2013-04-15 00:02:00,
2013-04-14 20:32:00,37.3,27.0,30.13,SSE,148,7.0,-999.0,66,-99.99,,,0.00,weatherlink.com 1.10,2013-04-15 00:32:00,
2013-04-14 20:47:00,37.0,27.0,30.14,SE,138,8.0,-999.0,67,-99.99,,,0.00,weatherlink.com 1.10,2013-04-15 00:47:00,
2013-04-14 21:02:00,37.3,27.0,30.15,SSE,148,10.0,-999.0,66,-99.99,,,0.00,weatherlink.com 1.10,2013-04-15 01:02:00,
2013-04-14 21:17:00,36.8,27.0,30.15,SE,146,11.0,-999.0,68,-99.99,,,0.00,weatherlink.com 1.10,2013-04-15 01:17:00,
2013-04-14 21:32:00,36.1,28.0,30.17,SSE,154,10.0,-999.0,71,-99.99,,,0.00,weatherlink.com 1.10,2013-04-15 01:32:00,
2013-04-14 21:47:00,35.7,29.0,30.17,SSE,163,4.0,-999.0,75,-99.99,,,0.00,weatherlink.com 1.10,2013-04-15 01:47:00,
2013-04-14 22:02:00,35.6,29.0,30.17,ESE,121,6.0,-999.0,76,-99.99,,,0.00,weatherlink.com 1.10,2013-04-15 02:02:00,
2013-04-14 22:17:00,35.5,29.0,30.17,SE,127,6.0,-999.0,77,-99.99,,,0.00,weatherlink.com 1.10,2013-04-15 02:17:00,
2013-04-14 22:32:00,35.6,29.0,30.18,ESE,114,4.0,-999.0,77,-99.99,,,0.00,weatherlink.com 1.10,2013-04-15 02:32:00,
2013-04-14 22:47:00,35.5,30.0,30.18,SE,133,9.0,-999.0,79,-99.99,,,0.00,weatherlink.com 1.10,2013-04-15 02:47:00,
2013-04-14 23:02:00,35.3,30.0,30.18,SE,140,7.0,-999.0,80,-99.99,,,0.00,weatherlink.com 1.10,2013-04-15 03:02:00,
2013-04-14 23:17:00,35.3,30.0,30.17,ESE,122,4.0,-999.0,81,-99.99,,,0.00,weatherlink.com 1.10,2013-04-15 03:17:00,
2013-04-14 23:32:00,35.4,30.0,30.16,ESE,123,9.0,-999.0,81,-99.99,,,0.00,weatherlink.com 1.10,2013-04-15 03:32:00,
2013-04-14 23:47:00,35.5,30.0,30.16,SE,134,5.0,-999.0,79,-99.99,,,0.00,weatherlink.com 1.10,2013-04-15 03:47:00,